#timestamp,LO_Frequency,Hit,StdDev 
1681992015.8,286046998.7,N
1681992035.6,286047000.8,N
1681992055.5,286047000.4,N
1681992075.3,286047000.8,N
1681992095.2,286047001.2,N
1681992115.9,286046997.6,N
1681992135.7,286046997.8,N
1681992155.6,286046996.2,N
1681992175.4,286046996.7,N
1681992195.3,286046998.4,N
1681992215.1,286046998.3,N
1681992216.0,286046998.3,N
1681992265.9,286047001.2,E
1681992275.8,286046998.1,N
1681992295.6,286047001.2,P
1681992315.5,286047001.0,N
1681992335.3,286047001.5,N
1681992355.1,286047001.7,N
1681992375.9,286047003.8,N
1681992395.7,286046999.7,N
1681992415.6,286046998.3,N
1681992435.4,286046998.3,N
1681992455.2,286046998.7,N
1681992475.1,286046999.0,N
1681992476.0,286046999.0,N
1681992495.8,286047000.8,N
1681992515.6,286047000.9,N
1681992535.5,286047001.5,N
1681992555.3,286047001.6,N
1681992575.2,286047001.7,N
1681992595.9,286047004.1,N
1681992615.7,286047004.1,N
1681992635.6,286047003.1,N
1681992655.4,286047003.6,N
1681992675.3,286047003.0,N
1681992695.1,286047001.6,N
1681992696.0,286047001.6,N
1681992715.8,286047001.4,N
1681992735.7,286047003.9,N
1681992755.5,286047004.0,N
1681992775.3,286047002.3,N
1681992795.2,286047002.2,N
1681992815.0,286047003.9,N
1681992815.9,286047003.9,N
1681992835.8,286047002.5,N
1681992855.6,286047003.9,N
1681992875.4,286047003.5,N
1681992895.3,286047002.9,N
1681992915.1,286047006.0,Y
1681992935.9,286047002.5,P
1681992955.7,286047001.3,P
1681992975.5,286047001.4,N
1681992995.4,286047001.6,Y
1681993015.2,286047000.9,P
1681993035.1,286046999.8,N
1681993036.0,286046999.8,N
1681993055.8,286046998.1,N
1681993075.6,286046997.9,N
1681993095.5,286046996.5,N
1681993115.3,286046999.6,N
1681993135.1,286047000.8,N
1681993155.9,286046998.3,N
1681993175.7,286047000.5,N
1681993195.6,286047000.7,N
1681993215.4,286047001.0,N
1681993235.2,286047002.8,N
1681993255.1,286046999.8,N
1681993256.0,286046999.8,N
1681993275.8,286047002.8,N
1681993295.6,286047002.2,N
1681993315.5,286047001.5,N
1681993335.3,286047002.6,N
1681993355.2,286047002.2,N
1681993375.9,286047001.8,N
1681993395.7,286046999.0,N
1681993415.6,286046998.9,N
1681993435.4,286047000.9,N
1681993455.2,286047000.1,N
1681993475.1,286047000.3,N
1681993476.0,286047000.3,N
1681993495.8,286047002.8,N
1681993515.7,286047000.3,N
1681993535.5,286047002.3,N
1681993555.3,286046999.7,N
1681993575.2,286046999.8,N
1681993595.0,286047000.2,N
1681993595.9,286047000.2,N
1681993615.7,286047000.5,N
1681993635.6,286047000.3,N
1681993655.4,286047002.7,N
1681993675.3,286047000.1,N
1681993695.1,286047002.5,N
1681993696.0,286047002.5,N
1681993715.8,286047002.4,N
1681993735.7,286047002.3,N
1681993755.5,286047002.1,N
1681993775.3,286047001.3,N
1681993795.2,286047002.7,N
1681993815.0,286047002.1,N
1681993815.9,286047002.1,N
1681993835.8,286047002.3,N
1681993855.6,286046999.8,N
1681993875.4,286047002.5,N
1681993895.3,286047002.7,N
1681993915.1,286046999.7,N
1681993935.9,286047002.7,N
1681993955.7,286047001.6,N
1681993975.5,286047002.5,N
1681993995.4,286046998.5,N
1681994015.2,286046999.4,N
1681994035.0,286047001.0,N
1681994035.9,286047001.0,N
1681994055.8,286047000.3,N
1681994075.6,286047002.0,N
1681994095.5,286047000.5,N
1681994115.3,286046998.4,N
1681994135.1,286046998.4,N
1681994155.9,286046998.2,N
1681994175.7,286046998.3,N
1681994195.6,286047000.5,N
1681994215.4,286046998.5,N
1681994235.2,286046999.9,N
1681994255.1,286046999.8,N
1681994256.0,286046999.8,N
1681994275.8,286047000.3,N
1681994295.6,286047001.2,N
1681994315.5,286046998.7,N
1681994335.3,286046998.4,N
1681994355.2,286046998.2,N
1681994375.9,286046996.6,N
1681994395.7,286046998.2,N
1681994415.6,286047001.1,N
1681994435.4,286047000.0,N
1681994455.2,286047002.0,N
1681994475.1,286047000.3,N
1681994476.0,286047000.3,N
1681994495.8,286046998.5,N
1681994515.7,286046999.2,N
1681994535.5,286046999.2,N
1681994555.3,286046998.5,N
1681994575.2,286047000.6,N
1681994595.9,286047000.7,N
1681994615.7,286047001.0,N
1681994635.6,286047001.2,N
1681994655.4,286047000.0,N
1681994675.3,286047000.0,N
1681994695.1,286047002.1,N
1681994696.0,286047002.1,N
1681994715.8,286046999.8,N
1681994735.7,286047000.0,N
1681994755.5,286046999.7,N
1681994775.3,286047001.6,N
1681994795.2,286047002.6,N
1681994815.0,286047002.6,N
1681994815.9,286047002.6,N
1681994835.8,286047004.3,N
1681994855.6,286047002.0,N
1681994875.4,286047001.6,N
1681994895.3,286047002.7,N
1681994915.1,286047002.6,N
1681994935.8,286047002.8,N
1681994955.7,286046999.7,N
1681994975.5,286047000.9,N
1681994995.4,286047000.5,N
1681995015.2,286047000.5,N
1681995035.0,286046999.8,N
1681995035.9,286046999.8,N
1681995055.8,286047000.0,N
1681995075.6,286047002.0,N
1681995095.4,286047000.4,N
1681995115.3,286047000.4,N
1681995135.1,286047000.0,N
1681995155.9,286047000.6,N
1681995175.7,286047000.9,N
1681995195.6,286047002.8,N
1681995215.4,286047000.1,N
1681995235.2,286047002.4,N
1681995255.1,286047000.0,N
1681995256.0,286047000.0,N
1681995275.8,286047000.4,N
1681995295.6,286046998.1,N
1681995315.5,286046998.4,N
1681995335.3,286047001.2,N
1681995355.2,286047000.6,N
1681995375.9,286047000.9,N
1681995395.7,286047000.4,N
1681995415.6,286046999.7,N
1681995435.4,286047002.1,N
1681995455.3,286047000.0,N
1681995475.1,286047002.0,N
1681995495.9,286047002.0,N
1681995515.7,286046999.7,N
1681995535.5,286047000.5,N
1681995555.4,286046998.2,N
1681995575.2,286046999.5,N
1681995595.1,286047000.8,N
1681995596.0,286047000.8,N
